Temperature
11 11 11 11 11 11 11 11 11 11 11 11 11 11 11 11 11 11 11 11 11 11 11 11 11 11 11 11 11 11 11 11 11 11 11 11 11 11 11 11 11 11 11
11 11 11 11 11 11 11 11 11 11 11 11 10 10 10 10 10 10 10 10 11 11 11 11 11 11 11 11 11 11 11 11 10 10 10 10 10 10 10 10 10 10 10
10 10 10 10 10 10 10 10 10 10 10 10 10 10 10 10 10 10 10 10 10 10 10 10 10 10 10 10 10 10 10 10 10 10 10 10 10 10 10 10 9 9 9
10 10 10 10 10 10 10 10 10 10 10 10 9 10 9 9 9 9 9 9 10 10 10 10 10 10 10 10 10 10 10 10 10 9 9 9 9 9 9 9 9 9 9
10 10 10 10 10 9 9 9 9 9 9 9 9 9 9 9 9 9 9 9 9 9 9 10 10 9 9 9 9 9 9 9 9 9 9 9 9 9 9 9 9 8 8
9 9 9 9 9 9 9 9 9 9 8 8 8 8 8 8 9 9 9 9 9 9 9 9 9 9 9 9 9 9 9 9 9 9 9 8 8 8 8 8 8 8 8
9 9 9 9 8 8 8 8 8 8 8 8 8 7 8 8 8 8 8 8 8 8 8 8 8 8 8 9 9 9 9 9 8 8 8 8 8 8 8 8 8 8 7
8 8 8 8 8 8 8 8 8 8 7 7 7 7 7 6 7 7 7 7 7 7 8 8 8 8 8 8 8 8 8 8 8 8 8 7 7 7 7 7 7 7 7
8 8 8 8 8 8 8 8 7 7 7 7 7 7 7 6 6 6 7 6 7 7 7 7 7 7 7 7 8 8 8 8 8 7 7 7 7 7 7 7 7 7 7
8 8 8 8 8 8 7 7 7 7 7 7 6 6 6 6 6 5 6 6 6 6 6 6 7 7 7 7 7 7 7 7 7 7 7 7 7 7 7 7 6 6 6
7 7 7 7 7 7 7 7 7 7 7 7 6 6 6 6 6 6 5 5 5 5 6 6 6 6 6 6 6 7 7 7 7 7 7 6 6 6 6 6 6 6 6
7 7 7 7 7 7 7 7 7 7 7 6 6 6 6 6 6 6 5 5 4 5 5 5 5 5 6 6 6 6 6 6 6 6 6 6 6 6 6 6 6 5 5
7 7 7 7 7 7 6 6 6 6 6 6 6 6 6 6 6 6 5 5 4 4 5 5 5 5 5 5 5 5 6 6 6 6 6 6 6 6 5 5 5 5 5
6 6 6 6 6 6 6 6 6 6 6 6 6 6 6 6 5 5 5 5 4 4 4 4 5 5 5 5 5 5 5 5 5 5 5 5 5 5 5 5 5 4 4
6 6 6 6 6 6 6 6 6 6 5 5 5 5 5 5 5 5 5 5 4 4 4 4 4 4 4 4 4 5 5 5 5 5 5 5 4 4 4 4 4 4 4
6 5 5 5 5 5 5 5 5 5 5 5 5 5 5 5 5 5 5 4 4 4 4 4 4 4 4 4 4 4 4 4 4 4 4 4 4 4 4 4 4 3 3
5 5 5 5 5 5 5 5 5 5 5 5 5 5 5 5 4 4 4 4 4 4 4 3 4 4 4 4 4 4 4 4 4 4 3 3 3 3 3 3 3 3 3
5 5 5 5 5 5 5 5 4 4 4 4 4 4 4 4 4 4 4 4 4 4 3 3 3 3 3 3 3 3 3 3 3 3 3 3 3 3 3 2 2 2 2
4 4 4 4 4 4 4 4 4 4 4 4 4 4 4 4 4 4 3 3 3 3 3 3 3 2 2 3 3 3 3 3 3 2 2 2 2 2 2 2 2 2 2
4 4 4 4 4 4 4 4 4 4 4 3 3 3 3 3 3 3 3 3 3 3 2 2 2 2 2 2 2 2 2 2 2 2 2 2 2 2 2 1 1 1 1
3 3 3 3 3 3 3 4 3 3 3 3 3 3 3 3 3 3 3 3 3 2 2 2 2 2 2 1 1 2 1 1 1 1 1 1 1 1 1 1 1 1 0
3 3 3 3 3 3 3 3 3 3 3 3 3 3 3 3 2 2 2 2 2 2 2 2 2 1 1 1 1 1 1 1 0 0 0 1 1 0 0 0 0 0 -0
3 3 3 3 3 3 3 3 2 2 2 2 2 2 2 2 2 2 2 2 2 1 1 1 1 1 1 1 1 1 0 0 -0 -0 -0 -0 -0 -0 -0 -0 -0 -0 -1
2 2 2 2 2 2 2 2 2 2 2 2 2 2 2 2 2 2 1 1 1 1 1 1 1 1 1 0 0 -0 -0 -0 -1 -1 -1 -1 -1 -1 -0 -0 -0 -1 -1
1 1 1 1 2 2 2 2 1 1 1 1 1 1 1 1 1 1 1 1 1 1 0 0 0 0 0 -0 -0 -1 -1 -1 -1 -1 -1 -2 -1 -1 -1 -1 -1 -1 -1
1 1 1 1 1 1 1 1 1 1 1 1 1 1 1 1 1 1 0 0 0 0 0 -0 -0 -0 -0 -1 -1 -1 -1 -2 -2 -2 -2 -2 -2 -2 -2 -2 -2 -2 -2
Wind_Speed
1 1 1 1 1 1 2 2 2 2 2 2 2 2 2 1 1 1 2 3 2 2 2 3 4 5 7 7 8 8 7 7 7 7 6 6 6 6 6 6 5 5 5
2 1 1 1 1 2 2 2 3 2 2 2 2 2 2 1 1 1 1 2 3 2 2 2 3 4 6 7 8 8 8 7 7 6 6 6 6 6 6 5 5 5 5
2 2 1 1 1 2 2 2 3 2 2 2 2 2 2 1 1 1 0 0 1 3 2 2 2 3 4 5 7 8 8 7 7 6 6 6 6 5 5 4 4 4 3
2 2 2 1 1 2 2 2 2 2 2 2 2 2 2 2 1 1 1 1 1 1 2 2 2 3 3 4 5 6 7 7 6 6 6 6 5 4 4 3 2 2 2
2 2 2 2 2 2 2 2 2 2 2 2 2 2 1 1 1 1 1 1 2 2 2 4 3 3 3 3 4 4 5 6 6 6 6 5 4 4 3 2 2 1 1
3 3 2 2 2 2 2 3 3 2 2 2 3 2 1 1 1 1 1 1 2 2 1 2 2 3 3 3 4 4 5 5 6 6 5 5 4 4 3 3 2 2 1
4 3 2 2 3 3 3 4 3 3 2 2 2 2 1 1 1 1 1 1 1 1 1 2 1 1 1 2 3 4 5 4 5 5 5 5 4 3 3 3 3 3 3
4 3 3 3 3 3 4 4 4 3 2 2 2 2 1 1 1 0 0 0 1 1 1 1 1 1 1 2 2 3 4 4 4 5 5 5 5 5 4 3 2 2 2
4 3 4 4 3 4 4 4 5 5 3 3 2 2 2 2 1 1 1 1 1 1 1 0 1 1 1 2 3 3 3 3 4 4 5 6 6 5 5 4 4 3 3
4 4 4 4 4 3 4 4 5 4 5 4 3 2 2 1 2 1 2 2 2 2 2 2 1 2 2 2 2 2 3 3 4 5 4 5 6 5 5 5 5 5 4
4 4 4 4 4 4 4 4 4 5 5 5 4 3 2 2 2 3 3 3 2 3 2 2 2 2 2 3 3 3 2 2 4 4 5 5 7 6 5 5 5 5 6
3 4 4 4 4 4 4 4 4 5 5 5 5 4 3 3 3 3 4 4 3 3 2 2 2 2 2 3 4 3 3 3 4 5 6 6 6 7 7 6 6 6 7
4 4 4 4 4 4 4 4 4 5 5 5 5 5 5 4 3 3 4 4 4 3 3 3 2 3 2 3 4 4 4 4 5 6 6 6 6 6 6 6 7 7 8
4 4 5 5 5 5 4 4 4 4 4 4 5 5 4 4 4 4 4 4 4 4 4 4 2 3 3 3 4 5 4 5 6 6 6 5 5 6 6 7 7 7 7
3 4 5 5 5 5 5 4 4 4 4 4 4 5 4 4 4 4 4 5 5 5 5 4 3 3 3 4 3 4 4 5 6 6 5 5 5 5 6 6 7 7 7
4 4 5 5 5 5 5 5 4 5 5 4 4 5 5 4 4 4 4 4 4 5 5 3 3 3 3 3 3 4 4 4 6 6 6 6 6 6 6 6 7 8 8
4 5 5 5 5 5 5 5 5 5 6 5 4 5 5 5 4 4 4 4 4 4 4 4 3 3 3 3 3 3 4 4 5 6 7 7 7 7 7 7 8 8 9
4 4 4 5 6 5 5 6 6 6 6 6 6 6 6 4 5 4 4 4 4 4 4 5 3 3 4 3 3 3 3 4 4 5 6 7 8 8 8 9 9 9 9
4 4 5 5 6 6 6 6 6 6 6 6 6 6 6 6 6 5 5 5 4 4 4 4 4 3 3 3 3 3 3 4 4 5 6 7 8 8 9 9 9 9 10
4 5 5 5 5 6 6 6 6 6 5 5 5 5 5 6 6 6 5 6 5 5 4 4 4 3 4 4 4 3 3 3 4 4 5 6 7 8 9 9 10 10 10
4 4 4 5 5 5 5 6 6 6 5 5 5 5 5 5 5 5 5 6 6 5 5 5 5 4 4 4 4 3 4 3 4 3 4 5 5 6 7 9 9 10 11
4 4 4 5 5 5 5 7 6 6 5 5 5 5 4 4 5 5 6 6 7 7 7 6 5 6 6 5 4 3 3 3 4 2 4 5 5 5 6 7 9 10 11
4 4 4 5 6 6 6 7 7 6 5 5 5 5 4 4 5 4 4 5 5 6 7 7 7 7 6 5 4 4 4 4 5 4 4 5 4 5 6 7 10 11 11
4 4 4 5 5 5 6 7 7 6 5 5 5 6 5 5 5 5 4 4 4 4 5 5 5 5 5 4 4 4 4 4 4 4 4 5 5 5 6 7 9 10 11
4 4 5 5 5 5 6 7 6 5 5 5 5 5 6 6 6 6 5 5 4 4 3 4 4 4 4 4 4 3 3 3 4 4 3 4 4 5 6 5 6 8 9
5 4 5 5 5 6 6 7 7 5 5 5 4 5 6 6 6 7 6 6 5 5 4 3 3 3 3 3 4 5 4 4 4 4 3 3 4 3 4 4 5 6 7
Wind_Direction
157 158 147 135 158 163 165 162 153 156 151 151 163 167 166 170 167 143 101 90 105 126 148 159 164 168 168 160 151 147 141 136 131 124 118 113 113 111 113 110 106 100 93
167 179 171 163 178 173 181 170 162 164 156 155 159 156 167 166 157 145 128 96 85 95 121 154 164 173 176 171 159 153 147 144 142 138 132 127 121 116 113 109 104 101 96
185 187 186 187 186 171 171 162 159 162 154 148 145 131 123 130 131 152 179 120 98 86 92 144 163 167 169 164 161 159 155 152 153 152 147 139 132 127 124 114 109 105 98
193 189 183 189 180 170 170 164 164 164 160 153 133 115 102 95 100 108 123 151 104 75 78 83 151 159 163 162 161 164 166 162 159 156 154 147 141 138 134 128 126 110 104
196 189 185 181 174 167 170 169 170 175 163 146 125 106 95 94 84 82 102 102 97 83 79 70 86 115 147 161 167 162 165 170 167 162 158 154 159 160 161 159 173 188 195
198 187 182 180 175 172 168 167 164 163 157 134 109 87 71 93 98 95 123 102 91 93 104 100 83 85 110 151 161 160 151 155 160 158 161 163 166 174 184 191 209 227 244
198 189 187 179 181 184 177 169 157 154 139 135 125 103 73 79 97 109 126 132 110 92 116 109 89 132 140 155 170 174 167 157 164 175 179 182 181 186 195 211 228 238 251
195 194 193 191 194 189 182 179 173 174 171 189 189 175 185 189 143 48 244 210 161 103 84 116 136 169 205 198 161 171 180 182 180 193 199 204 206 210 213 220 233 251 277
195 197 200 198 196 194 193 192 191 191 188 205 216 215 209 209 220 202 249 239 224 218 202 152 188 192 213 224 202 186 192 207 214 215 218 215 215 218 221 223 233 251 268
196 198 203 202 199 200 203 201 203 204 195 199 207 240 252 207 210 202 223 247 258 247 236 218 233 215 218 224 201 202 206 223 229 234 233 234 229 230 230 233 244 253 264
195 196 199 205 203 204 208 207 209 210 204 201 203 203 204 210 229 236 243 245 253 245 243 240 231 226 226 227 223 213 207 231 243 248 250 251 239 232 239 248 253 257 264
196 195 195 203 206 208 208 208 211 216 215 208 206 206 207 212 218 228 242 246 255 262 268 250 233 226 228 227 221 212 211 231 252 257 256 253 248 241 246 252 258 262 266
205 203 200 205 208 212 210 209 209 214 217 213 212 213 216 224 224 231 230 248 260 266 260 251 234 231 231 232 228 215 218 237 253 260 264 262 254 253 250 253 260 263 267
217 208 207 209 210 209 206 205 212 215 218 216 219 219 219 222 218 220 226 236 252 256 249 249 232 223 235 241 245 236 235 237 250 255 260 263 258 257 262 257 259 263 268
217 212 210 213 213 209 205 202 210 210 214 220 220 219 220 221 221 224 225 225 234 248 252 244 239 234 241 245 243 247 249 237 241 250 255 254 251 253 255 262 266 264 265
212 213 212 211 211 208 205 204 211 210 212 219 220 218 217 219 219 217 216 224 235 243 252 254 256 253 253 246 236 242 250 258 243 246 254 257 255 253 252 256 267 267 267
213 216 216 211 212 212 208 208 213 211 216 218 216 216 220 218 213 216 215 217 224 227 240 256 260 259 264 258 249 246 250 255 254 250 250 255 255 254 257 260 262 264 264
220 218 218 214 212 213 211 210 214 215 216 217 217 216 218 215 215 212 210 215 221 224 228 241 250 253 260 266 265 260 264 263 264 264 260 258 256 257 261 261 260 261 262
223 220 218 219 217 214 212 213 213 216 218 219 219 217 217 216 217 215 212 213 217 216 221 227 240 248 257 256 263 264 265 266 265 266 268 260 258 261 266 264 262 264 265
225 224 224 226 227 220 215 214 213 214 218 222 223 222 222 220 220 218 216 214 210 209 210 215 224 236 241 243 246 251 259 260 259 265 273 269 264 263 263 262 260 263 267
231 227 228 230 231 227 220 212 209 212 215 220 226 227 226 224 229 226 220 213 210 211 212 212 218 227 230 230 235 241 254 264 266 262 279 272 266 264 264 261 259 263 267
235 230 229 229 231 228 214 210 211 211 213 216 221 225 222 219 220 217 222 226 226 222 216 218 222 225 235 239 239 237 249 267 269 262 276 277 267 266 269 265 267 269 270
236 237 236 234 234 228 213 209 210 214 216 220 221 221 221 217 214 215 215 216 231 238 236 230 227 234 241 240 240 245 246 254 266 278 277 274 277 274 278 272 270 267 270
238 240 241 241 240 230 214 209 208 216 219 223 223 220 217 216 211 207 210 220 232 239 237 235 237 244 247 241 238 250 254 261 275 275 267 272 282 285 291 280 269 266 270
241 240 240 238 238 235 216 210 211 215 217 223 226 223 219 216 205 201 206 213 227 238 225 219 230 238 238 239 232 229 236 245 265 271 267 267 285 294 290 279 274 273 274
241 240 243 241 239 238 223 213 212 211 213 219 222 223 219 215 207 206 213 214 221 228 223 221 221 226 228 227 228 235 237 245 262 264 256 264 283 298 289 284 292 291 284
Height
1529 1529 1530 1530 1531 1532 1532 1533 1534 1535 1536 1537 1538 1539 1540 1541 1542 1543 1544 1545 1546 1547 1548 1548 1549 1550 1551 1552 1552 1553 1553 1554 1554 1555 1555 1556 1556 1556 1557 1557 1557 1557 1557
1527 1527 1528 1528 1529 1530 1531 1532 1532 1533 1534 1535 1536 1537 1538 1539 1541 1542 1543 1543 1544 1545 1546 1547 1548 1549 1550 1550 1551 1551 1552 1553 1553 1554 1554 1555 1555 1555 1556 1556 1556 1556 1556
1525 1525 1526 1526 1527 1528 1529 1530 1530 1531 1532 1533 1534 1535 1536 1537 1538 1539 1540 1541 1542 1543 1544 1545 1546 1547 1548 1548 1549 1550 1551 1551 1552 1552 1553 1553 1554 1554 1554 1554 1554 1555 1555
1523 1523 1524 1524 1525 1526 1527 1528 1529 1529 1530 1531 1532 1532 1534 1535 1536 1537 1538 1539 1540 1541 1542 1543 1544 1545 1546 1546 1547 1548 1549 1549 1550 1551 1551 1552 1552 1552 1553 1553 1553 1553 1553
1520 1521 1521 1522 1523 1523 1525 1526 1527 1528 1528 1529 1530 1530 1532 1533 1534 1535 1536 1536 1537 1538 1539 1540 1541 1542 1543 1544 1545 1546 1547 1547 1548 1549 1549 1550 1550 1550 1551 1551 1551 1551 1551
1518 1518 1519 1520 1520 1521 1522 1523 1525 1526 1526 1527 1528 1529 1530 1530 1531 1532 1533 1534 1535 1536 1537 1537 1538 1539 1540 1541 1542 1543 1544 1545 1545 1546 1547 1547 1548 1548 1548 1549 1549 1549 1549
1515 1516 1517 1517 1518 1519 1520 1521 1522 1523 1524 1525 1526 1527 1528 1528 1529 1529 1530 1531 1532 1533 1534 1534 1536 1537 1538 1538 1539 1541 1541 1542 1543 1544 1544 1545 1545 1546 1546 1546 1546 1546 1546
1513 1513 1514 1515 1516 1517 1518 1519 1520 1521 1522 1523 1524 1525 1527 1528 1527 1527 1528 1529 1530 1531 1531 1532 1533 1534 1535 1536 1536 1538 1539 1539 1540 1541 1542 1542 1543 1543 1543 1544 1543 1543 1543
1510 1511 1512 1513 1513 1514 1515 1516 1517 1518 1519 1521 1522 1524 1525 1525 1525 1525 1525 1526 1527 1527 1528 1529 1529 1530 1532 1532 1533 1534 1536 1536 1537 1538 1538 1539 1540 1540 1540 1540 1540 1540 1540
1508 1508 1509 1510 1511 1511 1512 1513 1514 1515 1517 1518 1519 1520 1521 1522 1523 1523 1524 1524 1524 1525 1525 1525 1526 1527 1528 1529 1530 1531 1532 1533 1534 1535 1535 1536 1536 1537 1537 1537 1537 1537 1537
1504 1505 1506 1507 1508 1509 1509 1510 1511 1512 1513 1514 1516 1517 1518 1519 1520 1520 1520 1521 1522 1522 1522 1522 1522 1523 1524 1525 1526 1527 1528 1529 1530 1531 1531 1532 1532 1533 1533 1533 1533 1533 1533
1501 1502 1503 1504 1505 1505 1506 1507 1508 1509 1510 1511 1512 1513 1514 1516 1516 1517 1517 1518 1518 1519 1519 1519 1519 1520 1521 1522 1523 1524 1524 1526 1527 1527 1528 1528 1529 1529 1529 1529 1529 1529 1529
1498 1499 1500 1500 1501 1502 1503 1504 1505 1506 1506 1508 1509 1510 1511 1513 1514 1514 1515 1515 1515 1515 1516 1516 1516 1517 1517 1518 1519 1520 1521 1522 1523 1523 1524 1524 1525 1525 1524 1524 1525 1524 1525
1494 1495 1496 1497 1498 1499 1500 1500 1501 1502 1503 1504 1505 1506 1508 1509 1510 1511 1511 1512 1512 1512 1513 1513 1513 1513 1514 1515 1515 1516 1517 1518 1518 1519 1519 1519 1520 1520 1520 1520 1520 1520 1520
1491 1491 1492 1493 1494 1495 1496 1497 1497 1498 1500 1501 1502 1502 1504 1505 1506 1507 1507 1508 1510 1509 1509 1509 1510 1510 1510 1511 1511 1512 1513 1514 1514 1515 1515 1515 1515 1515 1515 1515 1515 1515 1515
1487 1488 1488 1489 1490 1491 1492 1493 1494 1495 1496 1497 1498 1499 1500 1501 1501 1502 1503 1504 1505 1506 1505 1506 1506 1507 1507 1508 1508 1508 1508 1509 1510 1510 1509 1510 1510 1511 1510 1510 1510 1510 1510
1483 1484 1484 1485 1486 1487 1488 1489 1489 1490 1492 1493 1493 1494 1495 1496 1497 1498 1499 1500 1501 1502 1502 1502 1503 1504 1504 1504 1505 1505 1505 1505 1505 1505 1505 1505 1506 1505 1505 1505 1505 1505 1504
1479 1480 1480 1481 1482 1483 1484 1485 1485 1486 1487 1488 1489 1490 1491 1492 1493 1494 1495 1496 1497 1498 1498 1498 1499 1500 1500 1501 1501 1501 1501 1501 1501 1501 1501 1501 1501 1501 1500 1500 1500 1500 1499
1475 1476 1476 1477 1478 1479 1479 1480 1481 1482 1483 1484 1485 1486 1487 1488 1489 1490 1491 1492 1493 1494 1495 1495 1495 1496 1497 1497 1497 1497 1497 1497 1496 1496 1496 1496 1496 1496 1495 1495 1495 1494 1494
1471 1472 1472 1473 1474 1475 1475 1476 1477 1478 1479 1480 1481 1482 1483 1484 1485 1486 1487 1488 1489 1490 1491 1491 1492 1492 1493 1493 1494 1493 1493 1493 1492 1492 1492 1491 1491 1491 1491 1490 1490 1489 1488
1467 1468 1468 1469 1469 1470 1471 1472 1473 1474 1475 1476 1477 1478 1479 1480 1481 1482 1483 1484 1485 1485 1486 1487 1488 1488 1489 1489 1490 1489 1489 1489 1488 1488 1487 1487 1486 1486 1485 1485 1484 1483 1483
1463 1464 1464 1465 1465 1466 1467 1468 1469 1470 1471 1472 1473 1474 1475 1476 1477 1478 1479 1480 1481 1482 1482 1483 1483 1484 1484 1485 1486 1485 1485 1484 1484 1484 1483 1482 1482 1480 1480 1480 1479 1478 1477
1459 1459 1460 1460 1461 1462 1463 1464 1465 1466 1467 1468 1469 1470 1471 1472 1473 1474 1474 1475 1476 1477 1478 1479 1479 1480 1480 1481 1482 1481 1481 1480 1479 1479 1479 1477 1477 1476 1475 1474 1474 1473 1472
1455 1455 1456 1456 1457 1457 1459 1460 1461 1462 1463 1464 1465 1466 1467 1468 1469 1470 1470 1471 1471 1472 1473 1474 1475 1475 1476 1477 1477 1477 1477 1476 1476 1475 1475 1473 1472 1471 1470 1469 1469 1467 1466
1450 1451 1452 1452 1452 1453 1454 1455 1457 1458 1458 1459 1461 1462 1463 1463 1464 1466 1466 1466 1467 1467 1469 1470 1470 1471 1472 1472 1473 1473 1472 1472 1471 1471 1471 1469 1468 1466 1465 1464 1463 1462 1461
1446 1447 1447 1448 1448 1449 1450 1451 1453 1453 1454 1455 1456 1457 1458 1459 1460 1461 1462 1462 1462 1463 1464 1465 1466 1466 1467 1467 1468 1468 1468 1468 1467 1466 1466 1466 1464 1463 1460 1459 1458 1457 1456